Погода в Павлодаре

Погода в Павлодаре : погода сейчас, прогноз погоды и архив. Всё, что Вы хотите узнать о погоде в Павлодаре!

Поиск расширенной информации на нашем сайте:

Полезная информация: Эти новые рецепты закусок не оставят вас равнодушными

Другие новости

Новости СМИ2

Главная страница сайта

Новости сайта

03.07.2017

Напоминаем, что на нашем специализированном сайте Метеоцентр.Азия вы можете получить высокодетализированные автоматические прогнозы погоды по пунктам России, СНГ и мира в авиационном формате (включающие направление и скорость ветра, видимость, явления погоды, количество и форму облачности, нижнюю и верхнюю границу облачности).

Рекомендуем: http://vengriya-opt.com.ua/ купить нижнее белье оптом.

Погода в Павлодаре - сегодня

Время (UTC), дата Ветер
(°,м/с) 
Видим.   Явления Облачность Т
(°С)
Тd
(°С)
f(%) Тe
(°С)
Pmin
(гПа)
dP
(гПа)
Po
(мм)
O2
(г/м3)
Тmin Tmax R s Состояние
почвы
12 12.02.18 280 (З) 20000 м    3/0 верхняя 
[Ci fib]
-14.6 -18.4 73 -15  1027.8  -0.3  759  325           
15 12.02.18 тихо ()   20000 м    ясно 
-21.8 -24.7 77 -22  1028.9  0.6  759  334    -12.4       
18 12.02.18 тихо ()   20000 м    ясно 
-21.3 -24.3 77 -21  1027.7  -1.1  758  333    -12.4       
21 12.02.18 тихо ()   20000 м    ясно 
-25.8 -29.5 71 -26  1027.7  -0.3  758  339           
00 13.02.18 030 (СВ) 20000 м    ясно 
-25.6 -29.2 72 -26  1027  -0.7  758  339           
06 13.02.18 050 (СВ) 20000 м    6/0 верхняя 
[Cs]
-18.4 -21.4 77 -19  1025.6  -0.7  757  329  -26.2         
09 13.02.18 060 (СВ) 20000 м    ясно 
-11.4 -16.1 68 -11  1023.3  -1.9  756  319           
12 13.02.18 060 (СВ) 20000 м    8/0 верхняя 
[Cs]
-14.5 -17.6 77 -15  1022.7  -0.7  755  323           
15 13.02.18 090 (В) 20000 м    6/0 верхняя 
[Cs]
-16.4 -19.6 76 -19  1021.8  -1  754  325    -11.2       
18 13.02.18 тихо ()   20000 м    10/0 средняя 
[Ac As]
-16.5 -19.6 77 -17  1020.6  -1.2  753  325    -11.2       
21 13.02.18 тихо ()   20000 м    9/0 средняя 
[Ac As]
-15.6 -18.7 77 -16  1019.3  -1.3  752  323           
00 14.02.18 110 (В) 20000 м    9/0 средняя 
[Ac As]
-12.6 -15.3 80 -15  1016.7  -2.3  751  318           
06 14.02.18 170 (Ю) 20000 м    10/3 1000 м средняя 
[Sc|Ac As]
-6.2 -10.2 73 -9  1014.4  -0.9  749  310  -17         
09 14.02.18 210 (ЮЗ) 1000 м  сильн. снег  10/3 600 м средняя 
[Sc|As op]
-6 -7.9 86 -9  1013.9  -0.4  749  309           
21 14.02.18 280 (З) 20000 м    4/0 средняя, верхняя 
[Ac trans|Ci fib]
-21.6 -25.3 72 -22  1021.5  0.5  754  332           
00 15.02.18 170 (Ю) 20000 м    3/0 средняя, верхняя 
[Ac trans|Ci fib]
-25.1 -28.7 72 -26  1022.2  0.5  754  336           
06 15.02.18 210 (ЮЗ) 20000 м    10/0 верхняя 
[Cs]
-16.8 -22.2 63 -19  1022.7  0.3  755  326  -25.9         
09 15.02.18 210 (ЮЗ) 20000 м  {снег}  10/0 средняя 
[Ac As]
-16 -21.2 64 -20  1023.9  1.1  756  325           
21 15.02.18 290 (З) 10 км  слаб. снег  10/0 средняя 
[As op]
-16.7 -19.6 78 -21  1029.2  1.2  760  328           
03 16.02.18 290 (З) 10 км  слаб. снег  10/0 средняя 
[As op]
-17.3 -19.9 80 -17  1033.9  2.2  763  330      25  равномерный
сухой снег
100% 
09 16.02.18 300 (СЗ) 20000 м    4/0 верхняя 
[Ci fib]
-13.5 -18 69 -16  1037.6  1.5  766  326           
21 16.02.18 тихо ()   20000 м    8/0 средняя, верхняя 
[Ac trans|Ci fib]
-19.4 -22.4 77 -19  1041.4  0.3  769  335           
00 17.02.18 тихо ()   20000 м    3/0 верхняя 
[Ci fib]
-23.4 -26.9 73 -23  1041.9  0.2  769  341           
03 17.02.18 260 (З) 4000 м  снег  10/0 средняя 
[As op]
-21.5 -24.5 77 -22  1042.8  770  338      0.3  26  равномерный
сухой снег
100% 
09 17.02.18 290 (З) 10 км  слаб. снег  10/0 средняя 
[Ac As]
-17 -21.7 67 -17  1042.4  -0.5  769  332           
Время (UTC), дата Ветер
(°,м/с) 
Видим.   Явления Облачность Т
(°С)
Тd
(°С)
f(%) Тe
(°С)
Pmin
(гПа)
dP
(гПа)
Po
(мм)
O2
(г/м3)
Тmin Tmax R s Состояние
почвы

Для получения пояснительной информации подведите курсор к названию столбца.

ПОГОДА в Павлодаре - архив

Всё, что Вы хотите узнать о погоде в Павлодаре - удобно и подробно!

Выберите нужную дату (начиная с 1 января 2015* года) и нажмите кнопку "Найти".
Будут отображены архивные сводки погоды по пункту Павлодар, начиная с указанной даты.


Отображать данные в формате CSV (для использования в таблицах Excel)


Внимание! Наш архив погоды предназначен исключительно для личного некоммерческого использования в познавательных целях. Если Вам необходимы официальные справки о состоянии погоды (для производственных, юридических, коммерческих и т.п. целей), обращайтесь в органы Росгидромета.

*Примечание: данная дата относится к архиву по метеостанциям СССР (Россия, СНГ, Балтия).
Архив по метеостанциям Зарубежной Европы и Азии (кроме Китая) хранится 10 дней, по другим регионам земного шара (Китай, Африка, Америка, Австралия, Океания) - 1 день.

Павлодар - район местоположения метеостанции


Название, широта, долгота, высота метеостанции:
Павлодар 52.1°ш. 77.1°д. 125 м над ур. моря [Казахстан]

Дополнительная информация

В oтличие oт бoльшинства пoгoдных сайтoв мы публикуем пoдрoбную метеoинфoрмацию в детальнoм прoфессиoнальнoм фoрмате.

Характеристики температуры и влажнoсти вoздуха измеряются на высoте 2 м в тени вдали oт зданий и деревьев.
Скoрoсть ветра измеряется на высoте 10 м (на урoвне рoста челoвека скoрoсть ветра ниже в 1.5-2 раза). Если метеoстанция нахoдится в гoрoде или в лесу, тo скoрoсть ветра занижена на 2-4 м/с пo сравнению с oткрытым местoм. Скoрoсть ветра над акватoриями крупных рек и oзёр, а также на вершинах хoлмoв на 2-5 м/с выше, чем в oбычных услoвиях.
Атмoсфернoе давление в разных тoчках местнoсти мoжет значительнo oтличаться oт давления на метеoстанции, в зависимoсти oт услoвий рельефа (при пoдъёме на 10 м давление пoнижается примернo на 1 мм рт.ст.).